Weather in Uchaly

Russia / Republic of Bashkortostan     54°19′09″N   59°22′43″E
temp.,
°C
wind,
m/s
gust,
m/s
humid.,
%
clouds,
%
prec.,
mm/h
press.,
hPa
HPBL,
m
26 february, fri
fri2623:00−26nw119847 0.0 103020
02:00−27nw11970 0.0 103020
05:00−27nw11950 0.0 103019
08:00−28w11960 0.0 102919
11:00−22ssw11860 0.0 1028108
14:00−18s238060 0.0 1027293
17:00−20s238853 0.0 1026111
20:00−25ssw23920 0.0 102620
27 february, sat
sat2723:00−27sw2310015 0.0 102620
02:00−28ssw2310098 0.0 102427
05:00−28ssw2310097 0.0 102220
08:00−26sse2499100 0.1 1019133
11:00−22se3597100 0.6 1016316
14:00−19se3697100 1.2 1012487
17:00−16nne3496100 1.9 1009177
20:00−17n2397100 0.6 100762
28 february, sun
sun2823:00−15n2297100 1.0 100633
02:00−14n2296100 0.3 100424
05:00−13n2296100 0.4 100326
08:00−13n129699 0.4 100323
11:00−10nne229399 0.6 1002179
14:00−8ene2392100 0.4 1002301
17:00−8ne3595100 0.7 1003335
20:00−10ne3796100 0.4 1004206
1 march, mon
mon123:00−13nne369794 0.5 1007154
02:00−15nne239799 0.1 100968
05:00−17nne229798 0.1 101255
08:00−17ne129798 0.1 101432
11:00−16ene129299 0.4 1016230
14:00−13e1189100 0.1 1016307
17:00−13e2292100 0.2 1017218
20:00−18e1199100 0.1 101820
2 march, tue
tue223:00−18wnw0098100 0.1 101920
02:00−20wsw1110083 0.0 101820
05:00−22w1210071 0.0 101820
08:00−22w12980 0.0 101720
11:00−16sw22890 0.0 1014129
14:00−13ssw23870 0.0 1012227
17:00−12ssw369221 0.0 1010170
20:00−11sw51084100 0.0 1009210